EHI
27 27 26 25 27 31 34 36 37 37 36 32 27 20 13 9 9 10 8 5 3 3 4 4 2 3 4 5 5 5 4 4 4 6 6 5 4 4 5 4 4 2 2
27 28 28 27 28 30 32 34 36 36 33 30 26 20 14 12 12 13 10 5 2 2 2 2 1 2 4 5 5 5 5 4 4 6 6 4 3 3 3 3 3 3 3
26 28 29 28 27 27 29 33 35 32 28 25 21 18 14 13 14 14 11 6 4 2 1 1 1 1 2 4 5 5 4 3 3 6 6 4 3 3 2 2 3 4 4
24 27 28 25 23 23 25 30 32 28 23 21 18 15 13 11 11 11 10 8 6 4 2 1 1 2 3 4 4 3 2 1 2 4 6 6 5 4 2 2 3 3 4
20 23 23 20 18 19 21 25 26 23 19 18 16 14 11 9 8 8 8 8 7 6 5 3 1 2 3 3 3 2 1 0 0 2 4 5 5 4 1 1 3 3 3
14 16 17 16 16 18 20 22 21 19 17 15 14 13 11 8 6 5 6 6 5 5 5 3 1 1 1 2 1 1 1 0 0 1 2 3 3 2 1 1 2 3 3
11 12 14 15 15 18 20 20 19 17 16 14 12 11 10 7 5 4 5 4 2 3 4 2 0 0 1 0 0 0 1 0 0 0 1 1 1 1 0 0 1 3 3
8 10 12 13 13 15 18 19 19 17 15 13 12 12 10 8 9 10 8 5 3 2 3 1 0 0 0 0 0 0 0 0 0 0 0 0 0 0 0 0 1 2 2
7 9 11 11 12 14 17 19 20 19 17 15 13 12 11 10 12 14 10 6 4 4 3 2 1 0 0 0 0 0 0 0 0 0 0 0 0 0 0 0 0 1 1
5 7 9 11 13 15 18 21 22 20 19 17 14 11 11 11 12 12 8 5 3 3 3 2 1 0 0 0 0 0 1 0 0 0 0 0 0 0 0 0 0 0 0
4 5 8 11 14 16 19 21 20 19 18 17 14 11 11 11 10 8 5 3 1 1 1 2 2 1 0 0 0 0 0 0 0 0 0 0 0 0 0 0 0 0 0
5 5 7 10 13 15 17 18 15 13 13 14 12 11 11 10 9 7 4 1 0 0 1 3 3 2 1 1 1 0 0 0 0 0 0 0 0 0 0 0 0 0 0
4 4 5 8 10 11 11 10 8 7 8 8 9 8 7 6 6 5 2 0 0 0 1 2 2 2 2 2 1 0 0 0 0 0 0 0 0 0 0 0 0 0 0
4 4 4 6 7 7 6 5 4 3 3 4 5 4 2 2 2 2 1 0 0 0 1 1 1 1 2 2 1 0 0 0 0 0 0 0 0 0 0 0 0 0 0
4 5 5 5 5 4 3 2 1 1 0 1 1 1 0 0 0 0 0 0 0 0 0 0 0 0 1 1 0 0 0 0 0 0 0 0 0 0 0 0 0 0 0
3 3 4 4 4 3 2 1 0 0 0 0 0 0 0 0 0 0 0 0 0 0 0 0 0 0 0 0 0 0 0 0 0 0 0 0 0 0 0 0 0 0 0
1 2 2 2 2 2 2 0 0 0 0 0 0 0 0 0 0 0 0 0 0 0 0 0 0 0 0 0 0 0 0 0 0 0 0 0 0 0 0 0 0 0 0
2 1 1 2 2 2 1 0 0 0 0 0 0 0 0 0 0 0 0 0 0 0 0 0 0 0 0 0 0 0 0 0 0 0 0 0 0 0 0 0 0 0 0
4 3 2 2 2 1 0 0 0 0 0 0 0 0 0 0 0 0 0 0 0 0 0 0 0 0 0 0 0 0 0 0 0 0 0 0 0 0 0 0 0 0 0
5 4 3 1 1 0 0 0 0 0 0 0 0 0 0 0 0 0 0 0 0 0 0 0 0 0 0 0 0 0 0 0 0 0 0 0 0 0 0 0 0 0 0
4 4 2 0 0 0 0 0 0 0 0 0 0 0 0 0 0 0 0 0 0 0 0 0 0 0 0 0 0 0 0 0 0 0 0 0 0 0 0 0 0 0 0
4 3 1 0 0 0 0 0 0 0 0 0 0 0 0 0 0 0 0 0 0 0 0 0 0 0 0 0 0 0 0 0 0 0 0 0 0 0 0 0 0 0 0
2 2 1 0 0 0 0 0 0 0 0 0 0 0 0 0 0 0 0 0 0 0 0 0 0 0 0 0 0 0 0 0 0 0 0 0 0 0 0 0 0 0 0
1 1 1 0 0 0 0 0 0 0 0 0 0 0 0 0 0 0 0 0 0 0 0 0 0 0 0 0 0 0 0 0 0 0 0 0 0 0 0 0 0 0 0
1 1 0 0 0 0 0 0 0 0 0 0 0 0 0 0 0 0 0 0 0 0 0 0 0 0 0 0 0 0 0 0 0 0 0 0 0 0 0 0 0 0 0
0 1 0 0 0 0 0 0 0 0 0 0 0 0 0 0 0 0 0 0 0 0 0 0 0 0 0 0 0 0 0 0 0 0 0 0 0 0 0 0 0 0 0
Wind_Speed
8 7 7 6 6 7 7 7 7 6 5 4 5 4 4 3 2 2 1 1 0 0 2 2 1 2 2 3 3 4 4 3 2 4 3 3 4 3 2 3 3 3 3
9 8 7 7 7 7 7 7 7 7 6 4 3 2 2 2 2 1 2 1 0 1 1 1 2 2 2 2 3 3 4 3 3 3 3 3 4 4 3 3 3 2 2
10 10 8 7 6 7 7 6 7 6 5 5 4 3 3 3 3 3 2 1 0 1 2 2 2 2 3 2 3 4 4 4 3 3 3 3 3 1 2 2 2 2 1
8 8 8 7 7 6 6 5 5 5 5 5 5 5 4 3 2 2 1 1 1 0 1 1 2 3 3 3 4 3 4 5 4 3 3 4 3 3 2 3 2 2 2
7 7 7 7 7 7 6 6 6 5 4 4 4 4 3 2 2 2 2 1 1 0 1 2 2 3 3 3 4 3 4 4 5 4 3 4 3 4 4 3 2 2 2
6 6 6 7 7 7 7 7 7 6 5 4 4 3 3 3 2 2 1 1 1 1 0 2 2 3 3 3 3 4 4 4 5 5 4 4 4 3 3 4 4 3 2
6 6 6 7 8 8 8 7 8 7 6 5 5 4 3 3 2 1 1 1 1 1 1 2 3 3 3 3 4 4 4 4 5 5 4 4 4 3 3 4 4 2 2
5 6 6 6 7 8 7 7 7 7 6 5 4 3 3 2 1 1 1 1 2 1 2 2 3 3 3 4 4 4 4 3 4 5 5 4 4 3 4 4 4 3 3
5 5 5 6 6 7 8 7 7 7 6 5 4 3 2 1 1 1 1 1 1 1 2 2 3 3 3 3 4 4 4 3 4 4 5 5 3 4 4 4 4 4 4
3 4 5 5 5 7 7 7 7 7 6 5 4 3 2 2 1 1 0 1 1 1 2 2 2 3 3 3 4 4 2 3 3 3 4 4 3 3 3 4 4 5 4
3 3 4 4 5 6 7 7 6 6 5 4 4 4 3 2 2 1 1 0 1 1 2 2 2 3 3 3 3 3 3 2 2 3 3 3 3 3 2 3 4 4 4
3 4 4 4 5 7 7 6 5 5 4 4 4 4 3 2 1 1 1 1 1 1 1 2 2 3 3 3 3 3 3 2 2 3 3 3 2 2 3 2 3 3 2
4 4 4 4 5 6 6 6 5 4 4 4 4 4 3 2 1 1 1 1 1 1 2 2 2 3 3 3 3 3 3 2 3 2 3 3 3 3 2 3 2 2 2
4 4 4 4 5 5 6 6 5 5 4 4 4 3 2 2 2 1 1 1 1 1 2 2 2 3 3 3 3 3 2 2 2 2 2 2 2 2 2 2 2 2 2
4 4 4 4 5 5 5 5 5 4 4 3 3 3 3 3 2 1 1 1 1 1 2 2 2 2 2 4 4 3 2 2 2 2 2 2 3 4 3 2 2 2 2
4 4 5 5 5 5 4 4 4 3 3 3 3 3 3 2 2 1 1 2 2 2 2 2 2 2 3 6 6 5 2 2 2 2 2 1 0 1 0 1 3 3 2
4 4 5 5 5 5 5 5 4 4 3 3 3 3 3 2 2 1 1 2 1 1 1 2 2 3 4 4 5 6 3 1 2 2 2 1 2 1 1 2 2 1 1
4 4 5 5 5 5 5 5 5 4 4 3 3 3 2 2 2 1 1 1 1 1 1 1 2 2 4 3 4 6 2 1 2 2 2 2 2 3 2 2 2 2 2
3 3 5 5 5 5 5 5 5 4 4 3 3 2 2 2 2 2 1 1 1 1 1 2 2 2 3 3 4 6 0 1 2 2 3 3 3 5 4 1 3 4 3
3 4 5 6 5 5 5 6 5 4 3 3 3 3 2 2 2 2 1 1 1 0 1 2 2 2 3 3 4 6 1 1 1 2 2 4 4 4 5 1 2 3 3
4 4 5 5 5 6 6 5 5 4 3 3 3 3 3 2 2 2 1 1 1 1 1 1 1 2 2 2 2 5 3 1 1 1 2 4 4 3 4 3 1 2 1
6 5 5 5 5 5 5 5 4 4 4 4 4 4 3 2 2 2 1 1 0 1 1 1 1 1 1 2 2 3 4 5 2 2 2 3 2 2 2 1 2 1 3
5 5 5 6 5 5 4 5 5 4 4 4 4 3 3 2 2 1 1 1 1 1 0 0 1 1 1 3 2 0 2 4 2 3 4 2 1 2 2 3 2 4 3
6 5 6 6 5 5 4 4 4 4 4 4 3 3 3 2 2 1 1 0 1 1 1 1 0 0 1 1 1 1 1 2 1 0 1 4 5 4 1 4 4 3 1
5 5 5 6 6 5 4 4 4 4 4 3 3 2 2 2 1 0 1 2 2 2 3 3 2 1 1 3 4 3 2 3 3 3 2 2 2 3 3 2 2 2 3
6 6 6 6 6 6 5 4 5 5 4 3 3 2 2 2 1 1 1 1 1 0 2 3 5 2 1 1 1 2 3 4 5 5 3 2 2 2 2 2 2 3 2
Wind_Direction
180 174 177 176 178 181 178 176 175 167 169 170 175 173 177 175 176 165 140 180 261 309 291 306 298 285 289 292 286 277 258 254 257 257 252 235 224 214 221 242 251 237 233
182 177 179 177 174 180 178 177 175 173 180 175 175 175 166 172 158 148 138 163 247 288 270 306 288 293 282 273 288 282 287 276 254 267 268 246 215 198 206 212 210 225 229
194 183 179 178 170 171 173 172 166 166 171 163 159 160 161 167 165 170 152 129 222 275 312 299 305 301 286 292 297 292 285 283 272 267 273 273 265 217 187 204 204 203 218
195 185 180 177 173 166 158 154 153 159 157 160 169 181 185 177 157 164 134 163 179 306 324 313 304 296 294 297 280 300 293 279 274 261 259 276 297 265 235 205 193 196 225
187 183 183 177 171 164 155 147 144 140 143 150 160 176 166 150 146 152 135 204 147 221 299 303 302 294 291 300 301 297 290 285 282 276 261 255 249 248 255 250 214 213 216
181 177 174 170 164 159 154 150 145 141 143 148 151 155 146 149 150 165 155 213 187 202 303 300 306 294 302 300 291 282 275 281 283 275 265 262 263 252 252 258 241 223 206
179 170 170 168 162 161 157 155 150 147 151 153 155 152 154 162 167 204 166 261 283 299 1 320 307 306 305 296 292 283 286 282 277 269 267 266 269 274 269 264 258 238 210
175 171 166 166 166 163 160 157 157 155 155 156 159 153 165 190 153 161 296 286 305 333 337 300 300 305 304 299 293 282 278 277 276 274 273 265 261 262 260 266 264 246 223
165 158 155 160 164 164 164 164 163 158 156 157 155 153 169 178 134 166 243 280 306 301 302 297 308 315 311 305 291 286 284 275 271 269 260 258 254 256 262 264 260 257 247
139 143 149 154 160 162 164 166 162 156 157 156 157 147 157 162 170 204 132 329 324 336 316 321 337 329 323 317 301 291 293 284 284 288 283 266 262 254 250 256 259 260 263
129 139 141 145 154 159 160 158 156 152 156 156 153 152 150 158 171 176 170 64 10 1 353 346 339 330 326 324 312 311 305 297 299 293 283 276 276 269 259 252 256 258 254
115 127 133 142 154 155 150 146 143 148 152 150 154 149 150 158 167 148 123 81 35 7 17 352 337 330 338 332 322 319 315 313 308 304 302 304 291 276 272 263 256 255 249
122 132 139 145 150 150 148 146 144 140 142 142 148 145 150 145 136 119 109 100 64 28 16 357 340 341 345 336 329 325 323 322 322 318 311 308 299 281 280 274 262 249 236
133 138 139 139 143 148 151 149 145 136 136 146 140 142 145 132 123 103 95 81 63 39 9 358 352 349 351 351 343 339 344 334 329 333 328 313 304 293 274 267 262 242 220
141 145 144 143 147 150 145 141 140 133 139 146 142 134 125 118 114 104 86 68 52 40 15 1 4 4 1 5 354 339 343 341 343 350 352 8 13 7 332 307 287 234 213
155 151 150 147 147 146 139 138 134 134 144 148 135 115 115 120 117 104 93 76 58 38 11 3 19 17 25 22 356 330 332 352 0 359 359 38 104 100 121 356 349 332 251
166 158 155 154 156 153 147 147 145 142 147 143 133 123 128 133 118 103 94 76 63 39 4 10 28 35 44 19 351 333 325 16 24 10 347 4 44 298 124 149 165 91 26
163 157 156 157 157 154 153 149 147 152 154 145 136 131 132 132 124 129 106 80 62 33 2 17 31 37 52 24 348 324 313 43 49 21 0 18 19 15 358 106 106 101 91
155 156 155 154 152 152 149 149 150 154 152 140 132 125 134 141 149 125 97 68 35 15 8 41 35 37 53 26 342 317 6 71 63 42 27 18 47 25 344 102 110 108 102
136 147 146 143 145 145 153 157 155 153 146 138 135 125 123 126 121 109 102 79 80 46 25 56 36 37 40 39 349 321 295 71 75 82 79 57 40 21 345 29 110 118 119
136 143 143 143 142 153 161 157 152 147 147 144 137 130 128 127 124 125 139 140 133 60 36 64 77 65 49 72 14 344 332 358 4 50 67 69 49 10 346 327 53 80 120
140 142 142 137 141 155 161 154 144 142 149 148 141 137 139 143 135 139 148 152 163 185 163 128 128 113 104 58 52 6 353 332 342 16 43 72 51 357 321 347 78 222 249
144 145 144 139 139 147 153 145 137 146 151 146 133 134 140 145 152 167 173 187 212 246 182 209 156 125 117 119 139 173 336 336 339 25 38 23 289 241 191 173 215 234 227
150 151 148 142 140 145 145 140 142 149 153 146 140 145 152 154 141 198 211 257 296 303 292 283 311 122 127 69 105 148 170 196 223 297 167 213 239 247 212 190 208 229 272
154 156 153 149 146 147 148 149 149 155 160 154 154 166 161 132 142 154 18 336 360 358 315 326 327 329 353 48 22 333 334 335 4 320 262 243 224 216 203 190 192 209 202
155 155 153 149 148 152 153 153 159 165 167 159 158 159 144 132 168 159 133 102 265 209 247 281 298 328 24 46 341 316 306 309 311 291 263 258 265 264 249 227 206 207 216